Regional Weather Roundup
Issued by NWS

Home | Current Version | Previous Version | Graphics & Text | Print | Product List | Glossary On
Versions: 1 2 3 4 5 6 7 8 9 10 11 12 13 14 15 16 17 18 19 20 21 22 23 24 25 26 27 28 29 30 31 32 33 34 35 36 37 38 39 40 41 42 43 44 45 46 47 48 49 50
000
ASUS43 KFSD 201610
RWRSD

WEATHER ROUNDUP FOR SOUTH DAKOTA
NATIONAL WEATHER SERVICE SIOUX FALLS SD
1000 AM CST MON NOV 20 2017

NOTE: "FAIR" INDICATES FEW OR NO CLOUDS BELOW 12,000 FEET WITH NO
SIGNIFICANT WEATHER AND/OR OBSTRUCTIONS TO VISIBILITY.


SDZ001>005-009-010-012>017-201700-
NORTHWEST AND NORTH CENTRAL SOUTH DAKOTA

CITY           SKY/WX    TMP DP  RH WIND       PRES   REMARKS
BUFFALO          N/A     46  17  31 W20       29.46S
FAITH            N/A     45  22  40 W10       29.54R
MOBRIDGE       CLOUDY    37  27  67 SE5       29.46F
$$

SDZ012>016-024>037-041>051-057-063-072>074-201700-
SOUTHWEST AND SOUTH CENTRAL SOUTH DAKOTA

CITY           SKY/WX    TMP DP  RH WIND       PRES   REMARKS
RAPID CTY ARPT SUNNY     56  17  21 W13       29.59R
PIERRE         CLOUDY    38  23  55 W6        29.52F
CUSTER         CLOUDY    44   8  23 W10       29.67F
ELLSWORTH AFB  MOSUNNY   57  14  18 W13       29.58R
PHILIP         CLOUDY    44  21  40 W17       29.57R
PINE RIDGE     CLOUDY    45  17  32 SW5       29.67R
SPEARFISH      FAIR      55   9  15 SW16G25   29.60R
WINNER         FAIR      45  21  38 SW9       29.56F
$$

SDZ004>011-016>023-039-040-201700-
NORTHEAST SOUTH DAKOTA

CITY           SKY/WX    TMP DP  RH WIND       PRES   REMARKS
ABERDEEN       PTSUNNY   31  26  82 S9        29.49F WCI  23
WATERTOWN      CLOUDY    33  27  78 S8        29.50F WCI  26
BROOKINGS      CLOUDY    33  26  75 S5        29.54  WCI  29
SISSETON         N/A     42  25  50 SW17      29.42F
$$

SDZ017-020-022-023-036>040-048>070-201700-
SOUTHEAST SOUTH DAKOTA

CITY           SKY/WX    TMP DP  RH WIND       PRES   REMARKS
SIOUX FALLS    CLOUDY    40  26  57 SW8       29.57F
HURON          CLOUDY    35  26  69 S8        29.53F WCI  29
CHAMBERLAIN    CLOUDY    38  27  63 CALM      29.55F
MITCHELL       CLOUDY    38  26  62 S5        29.56F
YANKTON        MOSUNNY   42  25  50 SW7       29.59F
$$

ABBREVIATIONS USED IN REMARKS
   TC - TEMPERATURE IN CELSIUS
  WCI - WIND CHILL INDEX
   HX - HEAT INDEX
  VSB - VISIBILITY





USA.gov is the U.S. government's official web portal to all federal, state and local government web resources and services.